QPF
0.00 0.00 0.00 0.00 0.00 0.00 0.00 0.00 0.00 0.00 0.00 0.00 0.00 0.00 0.00 0.00 0.00 0.00 0.00 0.00 0.00 0.00 0.00 0.00 0.00 0.00 0.00 0.00 0.00 0.00 0.00 0.00 0.00 0.00 0.00 0.00 0.00 0.00 0.00 0.00 0.00 0.00 0.00
0.00 0.00 0.00 0.00 0.00 0.00 0.00 0.00 0.00 0.00 0.00 0.00 0.00 0.00 0.00 0.00 0.00 0.00 0.00 0.00 0.00 0.00 0.00 0.00 0.00 0.00 0.00 0.00 0.00 0.00 0.00 0.00 0.00 0.00 0.00 0.00 0.00 0.00 0.00 0.00 0.00 0.00 0.00
0.00 0.00 0.00 0.00 0.00 0.00 0.00 0.00 0.00 0.00 0.00 0.00 0.00 0.00 0.00 0.00 0.00 0.00 0.00 0.00 0.00 0.00 0.00 0.00 0.00 0.00 0.00 0.00 0.00 0.00 0.00 0.00 0.00 0.00 0.00 0.00 0.00 0.00 0.00 0.00 0.00 0.00 0.00
0.00 0.00 0.00 0.00 0.00 0.00 0.00 0.00 0.00 0.00 0.00 0.00 0.00 0.00 0.00 0.00 0.00 0.00 0.00 0.00 0.00 0.00 0.00 0.00 0.00 0.00 0.00 0.00 0.00 0.00 0.01 0.01 0.00 0.00 0.00 0.00 0.00 0.00 0.00 0.00 0.00 0.00 0.00
0.00 0.00 0.00 0.00 0.00 0.00 0.00 0.00 0.00 0.00 0.00 0.00 0.00 0.00 0.00 0.00 0.00 0.00 0.00 0.00 0.00 0.00 0.00 0.00 0.00 0.00 0.00 0.00 0.00 0.00 0.01 0.04 0.04 0.03 0.02 0.01 0.00 0.01 0.02 0.03 0.02 0.01 0.00
0.00 0.00 0.00 0.00 0.00 0.00 0.00 0.00 0.00 0.00 0.00 0.00 0.00 0.00 0.00 0.00 0.00 0.00 0.00 0.00 0.00 0.00 0.00 0.00 0.00 0.00 0.00 0.00 0.00 0.00 0.00 0.00 0.02 0.05 0.04 0.05 0.03 0.02 0.02 0.02 0.02 0.02 0.02
0.00 0.00 0.00 0.00 0.00 0.00 0.00 0.00 0.00 0.00 0.00 0.00 0.00 0.00 0.00 0.00 0.00 0.00 0.00 0.00 0.00 0.00 0.00 0.00 0.00 0.01 0.03 0.05 0.07 0.05 0.05 0.04 0.06 0.11 0.10 0.08 0.06 0.05 0.05 0.05 0.05 0.04 0.03
0.00 0.00 0.00 0.00 0.00 0.00 0.00 0.00 0.00 0.00 0.00 0.00 0.00 0.00 0.00 0.00 0.00 0.00 0.00 0.00 0.00 0.00 0.00 0.00 0.01 0.02 0.03 0.05 0.05 0.04 0.02 0.01 0.02 0.04 0.06 0.09 0.09 0.06 0.05 0.05 0.04 0.03 0.02
0.00 0.00 0.00 0.00 0.00 0.00 0.00 0.00 0.00 0.00 0.00 0.00 0.00 0.00 0.00 0.00 0.00 0.00 0.00 0.00 0.00 0.00 0.00 0.00 0.00 0.00 0.00 0.00 0.00 0.00 0.00 0.02 0.01 0.02 0.04 0.06 0.07 0.09 0.08 0.08 0.07 0.06 0.05
0.00 0.00 0.00 0.00 0.00 0.00 0.00 0.00 0.00 0.00 0.00 0.00 0.00 0.00 0.00 0.00 0.00 0.00 0.00 0.00 0.00 0.00 0.00 0.00 0.00 0.00 0.00 0.00 0.00 0.00 0.01 0.03 0.02 0.02 0.05 0.08 0.11 0.12 0.13 0.11 0.10 0.11 0.15
0.00 0.00 0.00 0.00 0.00 0.00 0.00 0.00 0.00 0.00 0.00 0.00 0.00 0.00 0.00 0.00 0.00 0.00 0.00 0.00 0.00 0.00 0.00 0.00 0.00 0.00 0.00 0.00 0.00 0.01 0.04 0.02 0.02 0.02 0.03 0.05 0.09 0.15 0.16 0.24 0.41 0.47 0.38
0.00 0.00 0.00 0.00 0.00 0.00 0.00 0.00 0.00 0.00 0.00 0.00 0.00 0.00 0.00 0.00 0.00 0.00 0.00 0.00 0.00 0.00 0.00 0.00 0.00 0.00 0.00 0.00 0.00 0.00 0.00 0.00 0.00 0.00 0.00 0.02 0.07 0.08 0.13 0.27 0.40 0.47 0.57
0.00 0.00 0.00 0.00 0.00 0.00 0.00 0.00 0.00 0.00 0.00 0.00 0.00 0.00 0.00 0.00 0.00 0.00 0.00 0.00 0.00 0.00 0.00 0.00 0.00 0.00 0.00 0.00 0.00 0.00 0.00 0.00 0.00 0.00 0.00 0.00 0.00 0.01 0.01 0.05 0.14 0.16 0.14
0.00 0.00 0.00 0.00 0.00 0.00 0.00 0.00 0.00 0.00 0.00 0.00 0.00 0.00 0.00 0.00 0.00 0.00 0.00 0.00 0.00 0.00 0.00 0.00 0.00 0.00 0.00 0.00 0.00 0.00 0.00 0.00 0.00 0.00 0.00 0.00 0.00 0.00 0.00 0.00 0.02 0.04 0.06
0.00 0.00 0.00 0.00 0.00 0.00 0.00 0.00 0.00 0.00 0.00 0.00 0.00 0.00 0.00 0.00 0.00 0.00 0.00 0.00 0.00 0.00 0.00 0.00 0.00 0.00 0.00 0.00 0.00 0.00 0.00 0.00 0.00 0.00 0.00 0.00 0.00 0.00 0.00 0.00 0.00 0.00 0.00
0.00 0.00 0.00 0.00 0.00 0.00 0.00 0.00 0.00 0.00 0.00 0.00 0.00 0.00 0.00 0.00 0.00 0.00 0.00 0.00 0.00 0.00 0.00 0.00 0.00 0.00 0.00 0.00 0.00 0.00 0.00 0.00 0.00 0.00 0.00 0.00 0.00 0.00 0.00 0.00 0.00 0.00 0.00
0.00 0.00 0.00 0.00 0.00 0.00 0.00 0.00 0.00 0.00 0.00 0.00 0.00 0.00 0.00 0.00 0.00 0.00 0.00 0.00 0.00 0.00 0.00 0.00 0.00 0.00 0.00 0.00 0.00 0.00 0.00 0.00 0.00 0.00 0.00 0.00 0.00 0.00 0.00 0.00 0.00 0.00 0.00
0.00 0.00 0.00 0.00 0.00 0.00 0.00 0.00 0.00 0.00 0.00 0.00 0.00 0.00 0.00 0.00 0.00 0.00 0.00 0.00 0.00 0.00 0.00 0.00 0.00 0.00 0.00 0.00 0.00 0.00 0.00 0.00 0.00 0.00 0.00 0.00 0.00 0.00 0.00 0.00 0.00 0.00 0.00
0.00 0.00 0.00 0.00 0.00 0.00 0.00 0.00 0.00 0.00 0.00 0.00 0.00 0.00 0.00 0.00 0.00 0.00 0.00 0.00 0.00 0.00 0.00 0.01 0.00 0.00 0.00 0.00 0.00 0.00 0.00 0.00 0.00 0.00 0.00 0.00 0.00 0.00 0.00 0.01 0.01 0.01 0.01
0.00 0.00 0.00 0.00 0.00 0.00 0.00 0.00 0.00 0.00 0.00 0.00 0.00 0.00 0.00 0.00 0.00 0.00 0.00 0.00 0.00 0.00 0.00 0.01 0.01 0.01 0.00 0.00 0.00 0.00 0.00 0.00 0.00 0.00 0.00 0.00 0.01 0.02 0.03 0.02 0.01 0.00 0.00
0.00 0.00 0.00 0.00 0.00 0.00 0.00 0.00 0.00 0.00 0.00 0.00 0.00 0.00 0.00 0.00 0.00 0.00 0.00 0.00 0.01 0.01 0.01 0.02 0.02 0.01 0.00 0.00 0.00 0.00 0.00 0.00 0.00 0.00 0.01 0.01 0.03 0.01 0.00 0.00 0.00 0.00 0.00
0.00 0.00 0.00 0.00 0.00 0.00 0.00 0.00 0.00 0.00 0.00 0.00 0.00 0.00 0.00 0.00 0.00 0.00 0.00 0.01 0.01 0.02 0.03 0.04 0.04 0.01 0.00 0.00 0.00 0.00 0.01 0.01 0.01 0.00 0.02 0.01 0.00 0.00 0.00 0.00 0.00 0.00 0.00
0.00 0.00 0.00 0.00 0.00 0.00 0.00 0.00 0.00 0.00 0.00 0.00 0.00 0.00 0.00 0.00 0.00 0.00 0.00 0.00 0.01 0.03 0.02 0.01 0.01 0.00 0.00 0.00 0.02 0.02 0.02 0.01 0.01 0.00 0.01 0.01 0.01 0.01 0.00 0.00 0.00 0.00 0.00
0.00 0.00 0.00 0.00 0.00 0.00 0.00 0.00 0.00 0.00 0.00 0.00 0.00 0.00 0.00 0.00 0.00 0.00 0.01 0.02 0.02 0.01 0.00 0.00 0.00 0.01 0.01 0.01 0.01 0.01 0.01 0.02 0.01 0.01 0.02 0.03 0.02 0.01 0.00 0.00 0.00 0.00 0.01
0.00 0.00 0.00 0.00 0.00 0.00 0.00 0.00 0.00 0.00 0.00 0.00 0.00 0.00 0.00 0.00 0.00 0.02 0.02 0.02 0.01 0.00 0.00 0.00 0.00 0.00 0.00 0.00 0.00 0.01 0.04 0.04 0.03 0.01 0.01 0.06 0.02 0.01 0.01 0.00 0.00 0.02 0.02
0.00 0.00 0.00 0.00 0.00 0.00 0.00 0.00 0.00 0.00 0.00 0.00 0.00 0.00 0.00 0.00 0.01 0.03 0.01 0.00 0.00 0.00 0.00 0.00 0.00 0.00 0.00 0.00 0.00 0.01 0.02 0.07 0.04 0.02 0.00 0.09 0.03 0.03 0.05 0.00 0.01 0.01 0.00
MSLP
1010.45 1010.50 1010.43 1010.23 1010.14 1010.02 1010.01 1009.87 1009.63 1009.24 1009.05 1008.76 1008.49 1008.25 1007.97 1007.70 1007.34 1007.03 1006.72 1006.55 1006.55 1006.52 1006.56 1006.60 1006.60 1006.37 1006.09 1005.87 1005.79 1005.71 1005.66 1005.66 1005.63 1005.59 1005.62 1005.73 1005.86 1006.01 1006.20 1006.39 1006.60 1006.81 1007.09
1010.63 1010.59 1010.50 1010.23 1010.14 1009.99 1009.85 1009.80 1009.66 1009.37 1009.08 1008.74 1008.34 1008.20 1007.61 1007.22 1006.79 1006.44 1006.08 1005.77 1005.67 1005.66 1005.63 1005.60 1005.54 1005.52 1005.33 1005.02 1004.85 1004.75 1004.64 1004.55 1004.54 1004.58 1004.65 1004.69 1004.77 1004.87 1004.99 1005.16 1005.39 1005.62 1005.87
1010.58 1010.68 1010.53 1010.48 1010.54 1010.28 1010.03 1009.82 1009.65 1009.43 1009.08 1008.68 1008.33 1007.94 1007.61 1007.27 1006.78 1006.23 1005.65 1005.22 1004.97 1004.88 1004.83 1004.67 1004.66 1004.66 1004.66 1004.44 1004.02 1003.79 1003.72 1003.72 1003.71 1003.67 1003.65 1003.65 1003.63 1003.67 1003.75 1003.88 1004.09 1004.33 1004.57
1010.88 1010.70 1010.82 1010.82 1010.60 1010.37 1010.22 1010.17 1009.83 1009.42 1009.16 1008.79 1008.25 1007.86 1007.57 1007.09 1006.58 1006.00 1005.41 1004.73 1004.31 1004.13 1003.93 1003.94 1003.87 1003.83 1003.81 1003.70 1003.44 1002.95 1002.66 1002.55 1002.50 1002.50 1002.52 1002.53 1002.46 1002.39 1002.39 1002.59 1002.83 1003.10 1003.35
1011.20 1011.09 1011.32 1011.34 1011.00 1010.92 1010.71 1010.61 1010.31 1009.99 1009.50 1008.96 1008.33 1007.80 1007.56 1006.79 1006.23 1005.51 1004.90 1004.25 1003.69 1003.23 1002.98 1002.75 1002.75 1002.79 1002.80 1002.67 1002.53 1002.36 1002.11 1001.71 1001.64 1001.59 1001.47 1001.30 1001.17 1001.10 1001.10 1001.15 1001.32 1001.50 1001.74
1012.07 1011.92 1011.78 1011.77 1011.62 1011.37 1011.26 1011.15 1010.84 1010.47 1010.06 1009.32 1008.71 1008.23 1007.48 1006.96 1006.23 1005.47 1004.51 1004.39 1004.08 1003.59 1002.93 1002.52 1001.85 1001.31 1001.39 1001.44 1001.53 1001.46 1001.26 1001.17 1001.00 1000.65 1000.28 1000.04 999.87 999.80 999.81 999.92 1000.03 1000.24 1000.40
1012.64 1012.59 1012.47 1012.37 1012.32 1012.06 1011.83 1011.64 1011.27 1010.96 1010.37 1009.86 1009.18 1008.43 1007.86 1006.60 1006.27 1005.63 1005.30 1004.91 1004.18 1003.50 1003.09 1002.65 1001.95 1001.37 1001.03 1000.79 1000.91 1000.83 1000.64 1000.32 1000.14 999.89 999.45 999.31 999.04 998.87 998.71 998.70 998.67 998.70 998.95
1013.25 1013.14 1013.19 1012.97 1012.86 1012.59 1012.36 1012.24 1011.91 1011.49 1011.00 1010.56 1009.85 1009.08 1007.81 1007.18 1006.76 1006.72 1006.17 1005.25 1004.65 1003.88 1003.34 1002.53 1002.19 1001.92 1001.45 1001.19 1000.62 1000.34 999.93 999.63 999.19 998.84 998.48 998.32 998.19 998.00 997.73 997.39 997.26 997.23 997.35
1013.78 1013.80 1013.71 1013.58 1013.38 1013.10 1012.95 1012.78 1012.49 1012.21 1011.69 1011.10 1010.74 1010.16 1008.81 1008.01 1007.30 1006.96 1006.50 1005.37 1004.92 1004.54 1003.66 1003.24 1002.63 1002.20 1001.71 1001.20 1000.64 1000.16 999.51 999.24 998.87 998.54 997.95 997.59 997.15 996.93 996.67 996.29 995.82 995.64 995.46
1014.25 1014.31 1014.20 1014.05 1013.84 1013.61 1013.51 1013.34 1013.04 1012.74 1012.25 1011.56 1011.11 1010.66 1010.30 1009.39 1008.09 1006.62 1006.51 1006.23 1005.61 1004.92 1004.40 1003.44 1003.01 1002.52 1001.99 1001.00 1000.41 999.97 999.15 999.07 998.79 998.44 997.74 997.23 996.74 996.14 995.54 994.81 994.51 993.87 993.78
1014.34 1014.68 1014.54 1014.41 1014.27 1014.17 1014.06 1013.88 1013.52 1013.13 1012.70 1012.17 1011.66 1011.09 1010.45 1009.62 1009.01 1008.21 1006.26 1006.20 1005.82 1005.34 1004.46 1004.06 1003.07 1002.87 1002.12 1001.02 1000.21 999.63 999.46 999.32 998.80 998.57 997.90 997.33 996.29 995.63 995.07 994.46 993.57 992.07 992.52
1014.48 1014.89 1014.88 1014.77 1014.67 1014.61 1014.42 1014.19 1013.86 1013.44 1012.96 1012.45 1012.09 1011.54 1010.89 1010.07 1009.24 1008.64 1007.44 1006.40 1005.63 1005.11 1004.50 1004.31 1003.57 1002.70 1001.79 1000.86 1000.33 999.90 999.57 999.34 999.08 998.36 997.63 997.30 996.36 995.61 995.07 994.32 993.28 992.60 992.05
1014.72 1015.06 1015.17 1015.09 1014.97 1014.87 1014.69 1014.40 1014.01 1013.50 1012.98 1012.55 1012.17 1011.66 1011.17 1010.40 1009.60 1008.92 1008.00 1006.55 1005.61 1005.00 1004.50 1004.35 1003.67 1002.63 1002.20 1001.32 1000.82 1000.31 999.73 998.97 998.15 997.85 997.57 997.05 996.24 995.84 995.07 994.60 993.65 992.47 991.76
1015.20 1015.43 1015.46 1015.38 1015.20 1015.03 1014.77 1014.43 1014.06 1013.37 1012.88 1012.51 1012.07 1011.59 1011.01 1010.27 1009.57 1008.96 1008.30 1007.51 1005.77 1005.07 1004.29 1003.70 1003.22 1002.86 1002.07 1001.46 1001.26 1000.64 1000.12 999.08 998.50 997.84 997.49 997.25 996.58 995.69 995.14 994.36 993.47 992.52 991.98
1015.57 1015.64 1015.62 1015.50 1015.29 1015.05 1014.75 1014.35 1013.86 1013.27 1012.78 1012.35 1011.83 1011.32 1010.73 1010.04 1009.44 1008.90 1008.38 1007.94 1007.28 1005.29 1003.66 1003.25 1002.84 1002.74 1001.86 1001.88 1000.94 1000.69 1000.43 999.79 998.64 997.99 997.35 996.56 995.96 995.21 994.76 993.93 993.02 992.37 991.72
1015.76 1015.77 1015.68 1015.52 1015.25 1014.94 1014.62 1014.25 1013.66 1013.08 1012.65 1012.13 1011.62 1010.99 1010.46 1009.83 1009.22 1008.74 1008.23 1007.57 1007.13 1006.49 1004.77 1003.67 1002.98 1002.44 1002.05 1001.42 1001.06 1000.60 999.98 999.50 998.41 997.50 996.88 996.00 995.30 994.66 993.72 993.19 992.68 991.82 991.18
1015.94 1015.89 1015.75 1015.53 1015.19 1014.86 1014.55 1014.06 1013.50 1012.93 1012.37 1011.88 1011.35 1010.67 1010.08 1009.60 1008.96 1008.47 1008.03 1007.58 1006.90 1006.28 1005.25 1003.69 1003.41 1002.36 1001.82 1001.32 1000.60 1000.24 999.59 998.87 997.80 997.06 996.30 995.38 994.60 993.89 993.00 992.29 991.63 991.00 990.39
1016.10 1015.96 1015.81 1015.54 1015.14 1014.79 1014.40 1013.93 1013.30 1012.77 1012.19 1011.55 1010.94 1010.37 1009.71 1009.14 1008.80 1008.39 1007.95 1007.33 1006.78 1006.27 1005.59 1004.05 1003.15 1002.51 1001.84 1001.11 1000.25 999.54 998.91 998.05 997.17 996.20 995.28 994.49 993.87 993.01 992.28 991.40 990.73 990.31 989.77
1016.25 1016.01 1015.81 1015.49 1015.07 1014.65 1014.21 1013.71 1013.14 1012.57 1012.11 1011.42 1010.76 1010.08 1009.43 1009.00 1008.54 1008.18 1007.82 1007.38 1006.83 1006.05 1005.34 1004.45 1003.11 1002.46 1001.54 1000.78 999.74 998.91 998.02 997.18 996.49 995.69 994.82 994.00 993.30 992.45 991.38 990.71 990.03 989.49 988.99
1016.23 1016.00 1015.74 1015.36 1014.95 1014.47 1014.00 1013.49 1012.96 1012.69 1012.08 1011.36 1010.66 1009.98 1009.26 1008.78 1008.35 1008.01 1007.62 1007.07 1006.36 1005.74 1005.03 1004.11 1003.02 1002.05 1001.20 1000.20 999.59 998.59 997.21 996.73 995.77 995.22 994.54 993.63 992.60 991.70 990.70 989.99 989.40 988.75 988.24
1016.18 1015.89 1015.50 1015.10 1014.63 1014.21 1013.57 1013.23 1013.07 1012.60 1011.95 1011.08 1010.35 1009.56 1008.86 1008.44 1008.07 1007.54 1006.85 1006.44 1006.03 1005.27 1004.28 1003.40 1002.51 1001.64 1000.64 999.75 999.29 998.41 997.54 996.11 994.99 995.01 993.83 992.74 991.85 991.14 990.14 989.31 988.66 987.96 987.33
1015.95 1015.56 1015.11 1014.56 1014.04 1013.57 1013.24 1013.08 1012.87 1012.40 1011.66 1010.81 1009.72 1008.94 1008.39 1007.85 1007.20 1006.77 1006.39 1005.92 1005.23 1004.38 1003.86 1003.02 1001.66 1001.27 1000.40 999.82 998.86 998.21 997.23 996.06 994.33 994.35 993.32 991.80 991.52 990.22 989.23 988.47 987.96 987.22 986.77
1015.54 1015.13 1014.63 1014.16 1013.67 1013.31 1013.08 1012.84 1012.61 1012.23 1011.44 1010.26 1009.34 1008.60 1007.85 1007.23 1006.77 1006.42 1005.76 1005.01 1004.49 1004.04 1003.47 1002.44 1001.66 1001.00 1000.06 999.47 998.89 997.46 996.55 995.80 994.50 993.14 992.94 990.99 990.56 989.30 988.49 987.86 987.32 986.61 986.16
1015.25 1014.78 1014.26 1013.83 1013.44 1013.10 1012.77 1012.51 1012.25 1011.77 1010.85 1009.84 1009.02 1008.32 1007.70 1006.99 1006.59 1005.76 1004.93 1004.51 1004.08 1003.51 1002.40 1001.72 1000.99 1000.18 999.80 998.84 998.03 996.89 995.96 994.86 993.75 992.67 992.16 990.51 990.00 988.78 988.02 987.28 986.78 985.99 985.35
1014.96 1014.50 1014.01 1013.57 1013.15 1012.68 1012.45 1012.13 1011.89 1011.18 1010.20 1009.31 1008.67 1008.17 1007.60 1006.70 1005.90 1005.28 1004.68 1003.98 1002.92 1002.13 1001.47 1000.88 1000.22 999.41 998.57 997.89 997.25 996.30 995.33 994.32 992.68 991.99 991.64 990.70 989.53 988.53 987.99 986.76 985.90 985.21 985.20
1014.73 1014.25 1013.72 1013.35 1012.77 1012.26 1012.02 1011.79 1011.35 1010.74 1009.84 1008.99 1008.40 1007.74 1007.02 1006.12 1005.34 1004.89 1004.24 1003.25 1002.27 1001.47 1000.79 999.93 999.35 998.73 998.21 997.45 996.56 995.94 995.03 993.86 992.69 991.45 991.07 990.60 989.35 988.69 986.92 986.15 985.49 985.16 984.75
Thickness
5703 5700 5699 5699 5698 5697 5695 5694 5694 5695 5694 5694 5694 5694 5694 5695 5695 5696 5697 5698 5696 5694 5690 5687 5686 5686 5685 5685 5683 5682 5681 5679 5676 5675 5673 5671 5668 5667 5664 5662 5661 5658 5656
5695 5694 5693 5693 5691 5690 5688 5687 5685 5686 5686 5687 5689 5687 5691 5692 5692 5693 5694 5695 5694 5693 5690 5686 5684 5681 5681 5681 5680 5678 5677 5675 5673 5670 5668 5667 5665 5664 5663 5661 5659 5656 5654
5689 5687 5686 5683 5680 5679 5679 5678 5678 5678 5679 5681 5682 5683 5683 5684 5685 5686 5688 5689 5689 5688 5687 5684 5680 5677 5674 5673 5675 5674 5672 5669 5666 5664 5663 5661 5661 5660 5659 5658 5656 5653 5651
5679 5678 5675 5672 5671 5670 5669 5668 5668 5669 5668 5670 5673 5674 5674 5675 5676 5679 5681 5682 5684 5683 5681 5680 5677 5672 5668 5665 5664 5666 5666 5664 5661 5659 5657 5655 5655 5656 5657 5654 5651 5649 5646
5669 5668 5664 5661 5661 5659 5658 5656 5656 5656 5657 5659 5662 5664 5663 5666 5668 5672 5672 5676 5678 5677 5676 5675 5672 5668 5663 5658 5654 5652 5653 5654 5651 5650 5649 5650 5650 5650 5650 5649 5648 5645 5643
5655 5654 5653 5650 5648 5648 5646 5644 5643 5644 5643 5646 5649 5650 5654 5655 5658 5659 5665 5663 5661 5660 5660 5660 5661 5661 5657 5652 5647 5641 5638 5636 5637 5640 5642 5642 5643 5643 5642 5639 5638 5637 5636
5643 5641 5640 5638 5635 5634 5633 5632 5632 5630 5631 5631 5632 5637 5638 5646 5644 5645 5642 5642 5644 5646 5645 5643 5644 5642 5639 5638 5630 5624 5624 5623 5620 5623 5626 5627 5628 5628 5629 5629 5630 5631 5630
5631 5629 5626 5624 5622 5621 5620 5617 5616 5616 5616 5616 5615 5616 5622 5628 5626 5621 5620 5622 5621 5623 5622 5625 5622 5618 5614 5611 5611 5607 5604 5600 5602 5605 5608 5609 5610 5611 5614 5618 5621 5623 5624
5621 5617 5614 5612 5610 5609 5607 5604 5602 5600 5599 5600 5597 5593 5596 5597 5600 5600 5599 5604 5601 5597 5599 5596 5594 5591 5588 5586 5585 5583 5581 5578 5578 5576 5583 5587 5590 5592 5597 5604 5610 5614 5618
5610 5606 5603 5600 5599 5597 5593 5590 5587 5584 5583 5581 5579 5576 5572 5571 5571 5579 5576 5574 5572 5570 5569 5571 5566 5562 5558 5558 5555 5551 5553 5547 5547 5547 5550 5556 5562 5569 5578 5589 5596 5605 5610
5601 5595 5593 5590 5587 5583 5578 5574 5571 5567 5564 5561 5557 5554 5553 5553 5551 5548 5556 5548 5548 5541 5544 5538 5535 5526 5522 5519 5519 5515 5510 5507 5510 5508 5514 5520 5532 5539 5549 5561 5584 5588 5589
5593 5586 5581 5577 5573 5567 5563 5558 5554 5550 5547 5544 5538 5534 5530 5527 5525 5520 5522 5525 5522 5520 5513 5507 5498 5492 5488 5483 5479 5475 5470 5469 5468 5472 5476 5479 5491 5499 5511 5529 5550 5562 5561
5583 5575 5569 5564 5559 5553 5547 5543 5539 5536 5532 5527 5521 5516 5510 5506 5502 5495 5490 5497 5496 5497 5493 5484 5472 5465 5453 5444 5438 5433 5434 5441 5438 5442 5445 5450 5454 5464 5479 5492 5509 5526 5543
5569 5562 5556 5550 5545 5539 5533 5528 5523 5520 5515 5509 5503 5496 5491 5486 5480 5472 5463 5451 5460 5463 5469 5461 5450 5438 5421 5411 5401 5398 5398 5403 5405 5411 5415 5417 5423 5432 5448 5459 5473 5493 5506
5556 5549 5542 5536 5530 5524 5518 5513 5508 5504 5499 5492 5485 5478 5472 5466 5457 5448 5439 5427 5407 5414 5436 5435 5417 5411 5397 5379 5375 5370 5368 5372 5375 5380 5385 5394 5403 5414 5424 5431 5446 5462 5475
5543 5535 5529 5522 5516 5509 5503 5497 5493 5488 5481 5474 5467 5459 5450 5443 5436 5425 5413 5402 5387 5367 5365 5392 5384 5381 5370 5363 5351 5346 5349 5348 5354 5359 5361 5367 5378 5392 5405 5414 5423 5438 5452
5528 5521 5514 5507 5501 5494 5487 5482 5477 5471 5464 5455 5446 5439 5432 5422 5413 5400 5387 5375 5365 5352 5336 5358 5345 5354 5347 5336 5337 5329 5329 5330 5334 5338 5341 5346 5354 5365 5383 5396 5408 5420 5433
5513 5506 5498 5491 5485 5479 5472 5467 5461 5454 5445 5437 5429 5420 5411 5399 5387 5374 5362 5353 5343 5333 5316 5317 5326 5322 5319 5318 5317 5315 5314 5313 5314 5321 5323 5325 5330 5340 5357 5377 5392 5403 5414
5497 5490 5482 5476 5470 5464 5458 5451 5444 5436 5426 5418 5409 5399 5388 5376 5364 5351 5340 5329 5320 5314 5303 5293 5299 5299 5299 5298 5299 5299 5300 5301 5300 5300 5299 5298 5302 5314 5337 5355 5371 5385 5397
5483 5476 5468 5462 5455 5449 5442 5434 5426 5417 5408 5399 5388 5377 5367 5354 5343 5331 5321 5312 5304 5296 5287 5281 5280 5282 5281 5284 5278 5277 5286 5282 5284 5280 5275 5277 5283 5294 5310 5331 5352 5370 5384
5469 5462 5456 5449 5443 5435 5427 5418 5407 5397 5387 5380 5370 5359 5350 5338 5327 5317 5307 5298 5285 5278 5274 5270 5267 5266 5269 5268 5260 5261 5256 5265 5273 5258 5259 5268 5269 5275 5294 5318 5337 5355 5371
5456 5450 5445 5439 5432 5423 5412 5400 5387 5378 5369 5360 5355 5347 5335 5324 5317 5308 5296 5284 5275 5266 5258 5253 5257 5250 5253 5250 5249 5244 5244 5244 5255 5250 5247 5261 5255 5270 5286 5304 5324 5343 5358
5447 5440 5434 5426 5417 5407 5395 5382 5369 5357 5349 5344 5337 5328 5322 5315 5304 5293 5286 5277 5269 5261 5250 5246 5242 5240 5239 5238 5233 5237 5237 5233 5238 5246 5240 5256 5258 5270 5281 5296 5313 5332 5348
5435 5428 5421 5411 5402 5391 5378 5365 5352 5341 5333 5326 5319 5312 5305 5299 5288 5279 5273 5266 5259 5252 5250 5244 5237 5235 5228 5229 5227 5230 5232 5234 5238 5243 5245 5256 5261 5270 5280 5292 5307 5324 5340
5423 5415 5407 5397 5386 5375 5359 5346 5334 5326 5320 5314 5307 5298 5289 5285 5278 5268 5256 5251 5253 5250 5245 5238 5233 5230 5228 5226 5223 5226 5228 5232 5243 5247 5249 5255 5265 5273 5279 5292 5305 5319 5326
5409 5400 5392 5380 5369 5357 5342 5328 5315 5306 5304 5300 5296 5288 5281 5275 5267 5256 5247 5244 5242 5239 5236 5237 5232 5227 5224 5224 5224 5221 5224 5230 5238 5248 5252 5254 5265 5272 5289 5296 5305 5311 5319